Regional Weather Roundup
Issued by NWS

Home | Current Version | Previous Version | Text Only | Print | Product List | Glossary On
Versions: 1 2 3 4 5 6 7 8 9 10 11 12 13 14 15 16 17 18 19 20 21 22 23 24 25 26 27 28 29 30 31 32 33 34 35 36 37 38 39 40 41 42 43 44 45 46 47 48 49
000
ASUS45 KSLC 021710
RWRUT
UTAH REGIONAL WEATHER ROUNDUP
NATIONAL WEATHER SERVICE SALT LAKE CITY UT
1100 AM MDT SUN AUG 02 2015

UTZ001>011-023>025-021800-

NORTHERN UTAH

CITY           SKY/WX    TMP DP  RH WIND       PRES   REMARKS
BRIGHAM CITY   SUNNY     81  42  24 S6        30.03S
HILL AFB       MOSUNNY   81  41  23 E8        30.06S
LOGAN          SUNNY     77  40  26 VRB3      30.05F
OGDEN          MOSUNNY   83  41  22 E5        30.03S
PROVO AIRPORT  MOSUNNY   75  46  35 CALM      30.06S
SALT LAKE CITY PTSUNNY   86  40  19 S5        30.00F
VERNAL         SUNNY     80  45  28 E3        30.12F
WENDOVER       PTSUNNY   84  39  20 S17       30.02S
HEBER CITY     PTSUNNY   70  39  32 CALM      30.14F
WEST JORDAN    SUNNY     81  45  28 SE8       30.05S

$$

UTZ012>022-026-027-021800-

SOUTHERN/CENTRAL UTAH

CITY           SKY/WX    TMP DP  RH WIND       PRES   REMARKS
BLANDING       CLOUDY    64  60  85 E5        30.29F
BRYCE CANYON   CLOUDY    63  51  65 SE16G24   30.31R
CEDAR CITY     CLOUDY    75  49  39 SW15G21   30.16R
DELTA          CLOUDY    79  37  22 CALM      30.06S
HANKSVILLE     CLOUDY    79  55  44 SE6       30.10F
MILFORD        CLOUDY    77  46  33 SW21      30.10R
MOAB/CYNLANDS  MOSUNNY   78  52  40 SE16G23   30.10R
PRICE          SUNNY     80  50  34 S9        30.17F
ST GEORGE      PTSUNNY   79  57  47 N6        30.04R
KANAB          CLOUDY    72  57  60 N8        30.19F

$$

REGIONAL REPORTS     COLORADO/ARIZONA

CITY           SKY/WX    TMP DP  RH WIND       PRES   REMARKS
CRAIG, CO      MOSUNNY   81  45  28 N6        30.19F
GRAND JUNCTION CLOUDY    74  54  49 SE13      30.14S
RIFLE          CLOUDY    73  50  44 CALM      30.18S
MONTROSE       CLOUDY    70  52  52 NW3       30.23F
CORTEZ         PTSUNNY   68  61  78 CALM      30.22F
PAGE, AZ       LGT RAIN  67  65  93 SW5       30.14R FOG
GRAND CANYON   PTSUNNY   73  55  53 S7        30.24F
KINGMAN        SUNNY     87  52  29 CALM      30.03S
FLAGSTAFF      PTSUNNY   72  53  51 SW13      30.28S

$$

REGIONAL REPORTS    NEVADA/IDAHO/WYOMING

CITY           SKY/WX    TMP DP  RH WIND       PRES   REMARKS
LAS VEGAS, NV  MOSUNNY   89  53  29 VRB3      29.91S
ELY            CLOUDY    76  41  28 W6        30.19F
ELKO           CLOUDY    78  44  29 CALM      30.12F
POCATELLO, ID  SUNNY     80  47  31 N6        30.06F
BURLEY         SUNNY     81  45  28 N5        30.02F
EVANSTON, WY   MOSUNNY   78  31  17 CALM      30.25S
ROCK SPRINGS   SUNNY     75  34  22 NE5       30.23S
KEMMERER       SUNNY     81  27  13 NE7       30.26S

$$


USA.gov is the U.S. government's official web portal to all federal, state and local government web resources and services.